Location: Aboncourt
(47.7710°N, 5.9826°E)
Time: 03:32:39
(UTC+00:00)

EO 1 Del DPAF - Pass Details

Date: 05 July 2020
Orbit: 512 x 518 km, 98.0° (Epoch: 03 August)

Event Time Altitude Azimuth Distance (km) Brightness Sun altitude
Rises 22:37:43 0° 13° (NNE) 2,644 7.9 -18.1°
Reaches altitude 10° 22:39:49 10° 12° (NNE) 1,751 6.8 -18.2°
Maximum altitude 22:43:35 84° 286° (WNW) 523 3.1 -18.4°
Enters shadow 22:44:43 44° 201° (SSW) 724 3.5 -18.4°
